#�ϑ�����,���ϕ���,���ϕ���,�ő啗��,�ő啗����������,�ő�u�ԕ���,�ő�u�ԕ�����������
#(�N����),(m/s)   ,(16����),(m/s)   ,(16����)        ,(m/s)       ,(16����)            
2015/1/28 0:01,9.1,16,9.3,16,13.5,1
2015/1/28 0:02,8.9,16,9.1,16,13.9,16
2015/1/28 0:03,8.6,16,8.9,16,15.7,16
2015/1/28 0:04,8.5,16,8.6,16,15.6,16
2015/1/28 0:05,8.5,16,8.7,16,16.3,15
2015/1/28 0:06,8.9,16,8.9,16,15.7,16
2015/1/28 0:07,9.1,16,9.1,16,15.1,16
2015/1/28 0:08,8.9,16,9,16,16.2,16
2015/1/28 0:09,8.5,16,8.9,16,11.7,16
2015/1/28 0:10,8.3,16,8.4,16,14.2,15
2015/1/28 0:11,8.3,16,8.3,16,11.8,1
2015/1/28 0:12,8.3,16,8.3,16,16,16
2015/1/28 0:13,8.2,16,8.2,16,15.4,16
2015/1/28 0:14,8.1,16,8.2,16,12.2,1
2015/1/28 0:15,7.8,16,8,16,14.5,1
2015/1/28 0:16,7.5,16,7.8,16,13.8,16
2015/1/28 0:17,7.5,16,7.6,16,17.2,16
2015/1/28 0:18,7.5,16,7.8,16,17.9,15
2015/1/28 0:19,7.5,16,7.5,16,12.5,16
2015/1/28 0:20,7.4,16,7.6,16,11.6,1
2015/1/28 0:21,7.7,16,7.7,16,14.4,1
2015/1/28 0:22,7.5,16,7.6,16,11.9,2
2015/1/28 0:23,7.7,16,7.8,16,14.1,1
2015/1/28 0:24,7.6,16,7.7,16,13.3,16
2015/1/28 0:25,7.7,16,7.8,16,11.9,1
2015/1/28 0:26,7.7,16,7.7,16,13.4,15
2015/1/28 0:27,7.9,16,8,16,15.4,2
2015/1/28 0:28,8,1,8,16,15.9,2
2015/1/28 0:29,8.3,1,8.3,1,15.3,16
2015/1/28 0:30,8.4,1,8.5,1,12.7,2
2015/1/28 0:31,8.1,1,8.5,1,12.4,16
2015/1/28 0:32,8.1,1,8.2,1,9.5,1
2015/1/28 0:33,8.2,1,8.2,1,14.3,15
2015/1/28 0:34,8.2,1,8.3,1,13.9,1
2015/1/28 0:35,8,1,8.3,1,10,15
2015/1/28 0:36,7.9,16,8,1,14.1,14
2015/1/28 0:37,7.7,16,7.8,1,14.3,16
2015/1/28 0:38,7.4,16,7.7,1,14.4,16
2015/1/28 0:39,7.2,16,7.4,1,13.8,16
2015/1/28 0:40,7,16,7.2,1,12.2,16
2015/1/28 0:41,7.3,16,7.3,1,16.2,16
2015/1/28 0:42,7.5,16,7.5,1,15.7,16
2015/1/28 0:43,7.2,16,7.5,1,12.1,16
2015/1/28 0:44,7.2,16,7.3,1,12.3,16
2015/1/28 0:45,7.4,16,7.4,16,15,15
2015/1/28 0:46,7.4,16,7.4,16,11.7,16
2015/1/28 0:47,7.4,16,7.4,16,12.3,16
2015/1/28 0:48,7.2,16,7.4,16,15.4,16
2015/1/28 0:49,7.2,16,7.3,16,11.1,1
2015/1/28 0:50,7.4,16,7.4,16,11.3,16
2015/1/28 0:51,7.4,16,7.5,16,12.8,16
2015/1/28 0:52,7.3,16,7.3,16,13,16
2015/1/28 0:53,7.3,16,7.4,16,13,15
2015/1/28 0:54,7.3,16,7.3,16,10.6,16
2015/1/28 0:55,7.1,16,7.2,16,13,1
2015/1/28 0:56,7.2,16,7.3,16,11.5,14
2015/1/28 0:57,7.4,16,7.4,16,14.3,15
2015/1/28 0:58,7.4,16,7.4,16,11.1,16
2015/1/28 0:59,7.6,16,7.6,16,15.4,15
2015/1/28 1:00,7.8,16,7.8,16,14.9,16
2015/1/28 1:01,7.7,16,7.8,16,12.2,2
2015/1/28 1:02,7.7,16,7.7,16,12.6,16
2015/1/28 1:03,7.5,16,7.7,16,13.2,16
2015/1/28 1:04,7.6,16,7.7,16,12.7,1
2015/1/28 1:05,7.8,16,7.8,16,18.3,16
2015/1/28 1:06,7.9,16,8,16,16.9,15
2015/1/28 1:07,7.9,16,7.9,16,16.1,16
2015/1/28 1:08,8.2,16,8.2,16,15.8,1
2015/1/28 1:09,8.2,16,8.2,16,13.8,16
2015/1/28 1:10,8.3,16,8.3,16,16.8,16
2015/1/28 1:11,8.5,16,8.5,16,16.3,16
2015/1/28 1:12,8.6,16,8.6,16,14.4,15
2015/1/28 1:13,8.9,16,8.9,16,15.3,1
2015/1/28 1:14,9.1,16,9.1,16,16.5,16
2015/1/28 1:15,9,16,9.3,16,13.3,16
2015/1/28 1:16,9,16,9.1,16,15.1,1
2015/1/28 1:17,9,16,9.1,16,14.7,1
2015/1/28 1:18,8.9,16,9,16,16.3,16
2015/1/28 1:19,8.9,1,8.9,16,14.7,16
2015/1/28 1:20,8.9,1,9,16,16.1,1
2015/1/28 1:21,9,1,9.1,16,14.3,1
2015/1/28 1:22,9,16,9.1,16,15.7,16
2015/1/28 1:23,8.7,16,9,16,11.9,1
2015/1/28 1:24,8.4,1,8.6,16,13.1,1
2015/1/28 1:25,8.8,1,8.8,16,19,1
2015/1/28 1:26,8.6,16,8.8,16,13.6,16
2015/1/28 1:27,8.4,16,8.6,1,12.5,1
2015/1/28 1:28,8.1,16,8.4,1,13,16
2015/1/28 1:29,7.9,16,8.1,1,11.1,2
2015/1/28 1:30,7.9,16,7.9,1,17.7,2
2015/1/28 1:31,7.5,16,7.8,16,13.2,2
2015/1/28 1:32,7.3,16,7.4,16,12.4,2
2015/1/28 1:33,7.3,16,7.3,1,10.2,1
2015/1/28 1:34,7.5,16,7.5,1,14.9,2
2015/1/28 1:35,7.2,1,7.4,1,14.1,1
2015/1/28 1:36,7.3,1,7.4,16,15.6,16
2015/1/28 1:37,7.2,1,7.3,16,12.1,2
2015/1/28 1:38,7.4,1,7.4,16,14.8,1
2015/1/28 1:39,7.4,1,7.4,16,12.6,16
2015/1/28 1:40,7,1,7.5,16,15.2,16
2015/1/28 1:41,7.1,1,7.1,16,10.1,1
2015/1/28 1:42,7.2,1,7.3,16,11.7,1
2015/1/28 1:43,7.2,1,7.3,16,10.2,1
2015/1/28 1:44,6.8,1,7.2,1,10,16
2015/1/28 1:45,6.7,1,6.8,1,13.4,3
2015/1/28 1:46,6.6,1,6.7,1,14.8,1
2015/1/28 1:47,7,1,7,1,14.5,1
2015/1/28 1:48,6.9,1,7.2,1,14.8,15
2015/1/28 1:49,7,1,7.1,1,14.5,1
2015/1/28 1:50,7,1,7,1,15.1,15
2015/1/28 1:51,7,16,7.1,1,11.6,16
2015/1/28 1:52,7.1,16,7.1,1,13.9,2
2015/1/28 1:53,7.1,1,7.2,1,12.8,2
2015/1/28 1:54,7.1,1,7.1,1,9.5,16
2015/1/28 1:55,7,16,7.2,1,12.5,16
2015/1/28 1:56,6.9,1,7,1,11.1,16
2015/1/28 1:57,6.4,1,6.9,1,11.7,1
2015/1/28 1:58,6.2,1,6.3,16,10.2,16
2015/1/28 1:59,5.9,1,6.2,16,8.6,1
2015/1/28 2:00,6,1,6,16,10.6,16
2015/1/28 2:01,6,1,6,16,10.9,2
2015/1/28 2:02,5.6,1,6,16,9,1
2015/1/28 2:03,5.8,1,5.8,16,9.2,16
2015/1/28 2:04,5.7,1,5.9,16,7.8,1
2015/1/28 2:05,5.3,16,5.7,16,4.1,14
2015/1/28 2:06,5.1,1,5.3,1,9.7,1
2015/1/28 2:07,5.4,1,5.4,1,11.7,1
2015/1/28 2:08,5.3,1,5.4,1,9.4,2
2015/1/28 2:09,5.4,1,5.4,1,8.7,1
2015/1/28 2:10,5.2,1,5.4,1,8.6,1
2015/1/28 2:11,5.2,1,5.2,1,10.9,16
2015/1/28 2:12,5.4,1,5.4,1,13.4,1
2015/1/28 2:13,5.3,1,5.4,1,9.7,1
2015/1/28 2:14,5.2,1,5.3,1,9,16
2015/1/28 2:15,5.6,1,5.6,1,14,16
2015/1/28 2:16,5.9,1,5.9,1,14.4,1
2015/1/28 2:17,5.6,1,5.9,1,6.4,16
2015/1/28 2:18,5.5,1,5.6,1,8.7,2
2015/1/28 2:19,5.5,1,5.5,1,10.7,1
2015/1/28 2:20,5.3,1,5.5,1,5.2,15
2015/1/28 2:21,4.9,1,5.2,1,4.2,16
2015/1/28 2:22,4.5,1,4.9,1,6.8,2
2015/1/28 2:23,4.5,1,4.5,1,10.3,1
2015/1/28 2:24,4.6,1,4.6,1,6.5,1
2015/1/28 2:25,4.7,1,4.7,1,9.1,16
2015/1/28 2:26,4.4,1,4.6,1,9.3,16
2015/1/28 2:27,4.4,1,4.4,1,7.4,16
2015/1/28 2:28,4.5,1,4.5,1,9.7,1
2015/1/28 2:29,4.6,1,4.6,1,9.8,16
2015/1/28 2:30,5.1,1,5.1,1,12.3,16
2015/1/28 2:31,5.4,1,5.4,1,9.3,15
2015/1/28 2:32,5.3,1,5.4,1,5.5,1
2015/1/28 2:33,5,1,5.2,1,4.7,1
2015/1/28 2:34,4.7,1,4.9,1,2.9,16
2015/1/28 2:35,4.5,1,4.7,1,6.1,2
2015/1/28 2:36,4.6,1,4.6,1,10,1
2015/1/28 2:37,4.5,1,4.7,1,8.6,1
2015/1/28 2:38,4.3,1,4.5,1,5.5,2
2015/1/28 2:39,4.1,1,4.3,1,9.2,2
2015/1/28 2:40,3.8,1,4.1,1,6.1,2
2015/1/28 2:41,3.5,1,3.8,1,5.4,3
2015/1/28 2:42,3.5,1,3.5,1,4.4,16
2015/1/28 2:43,3.4,1,3.5,1,5,14
2015/1/28 2:44,3.6,1,3.6,1,5.7,1
2015/1/28 2:45,3.9,1,3.9,1,13.2,16
2015/1/28 2:46,3.7,1,3.9,1,9.5,1
2015/1/28 2:47,3.7,1,3.7,1,9.8,15
2015/1/28 2:48,4,1,4,1,10.9,15
2015/1/28 2:49,3.9,1,4,1,6.2,15
2015/1/28 2:50,4.1,1,4.1,1,9.4,1
2015/1/28 2:51,4.3,1,4.3,1,7.7,1
2015/1/28 2:52,4.7,1,4.7,1,11,16
2015/1/28 2:53,4.9,1,4.9,1,10,2
2015/1/28 2:54,5.2,1,5.2,1,7.9,2
2015/1/28 2:55,5,1,5.3,1,8.5,2
2015/1/28 2:56,5.1,1,5.1,1,8.4,16
2015/1/28 2:57,5,1,5.2,1,7.2,1
2015/1/28 2:58,4.8,1,5,1,6.3,3
2015/1/28 2:59,4.9,1,4.9,1,7.5,3
2015/1/28 3:00,4.8,1,4.9,1,7.1,1
2015/1/28 3:01,4.7,1,4.8,1,7.2,2
2015/1/28 3:02,4.3,1,4.7,1,4.7,2
2015/1/28 3:03,4.4,1,4.4,1,7.8,16
2015/1/28 3:04,4.1,1,4.4,1,7.7,15
2015/1/28 3:05,3.9,1,4.1,1,5.5,2
2015/1/28 3:06,3.6,1,3.9,1,2.6,2
2015/1/28 3:07,3.4,1,3.6,1,3.5,1
2015/1/28 3:08,3.4,1,3.5,1,4.2,1
2015/1/28 3:09,3.2,1,3.4,1,5.4,1
2015/1/28 3:10,3,1,3.2,1,5.6,2
2015/1/28 3:11,2.7,1,2.9,1,2.4,1
2015/1/28 3:12,2.7,1,2.7,1,4.3,3
2015/1/28 3:13,2.6,1,2.8,1,6.2,3
2015/1/28 3:14,2.4,1,2.5,1,4.3,15
2015/1/28 3:15,2.2,1,2.4,1,2,16
2015/1/28 3:16,2.3,1,2.3,1,4.9,2
2015/1/28 3:17,2.4,2,2.4,1,7.8,2
2015/1/28 3:18,2.4,2,2.4,1,4.7,2
2015/1/28 3:19,2.3,1,2.4,1,4.3,16
2015/1/28 3:20,2.4,1,2.4,1,4.9,2
2015/1/28 3:21,2.7,1,2.7,1,7.4,2
2015/1/28 3:22,2.8,1,2.8,1,6.5,16
2015/1/28 3:23,2.7,1,2.7,2,6.2,2
2015/1/28 3:24,3,1,3,1,6.2,4
2015/1/28 3:25,3.3,2,3.3,2,7.4,2
2015/1/28 3:26,3.4,2,3.4,2,6.7,1
2015/1/28 3:27,3.5,1,3.5,1,10.2,16
2015/1/28 3:28,3.9,1,3.9,1,11,16
2015/1/28 3:29,4.4,1,4.4,1,11.7,1
2015/1/28 3:30,4.5,1,4.5,1,8.3,16
2015/1/28 3:31,4.6,1,4.6,1,9.3,1
2015/1/28 3:32,4.7,1,4.7,1,9.2,2
2015/1/28 3:33,4.8,1,4.9,1,6.7,4
2015/1/28 3:34,4.6,1,4.8,1,4.2,16
2015/1/28 3:35,4.4,1,4.6,1,5.6,15
2015/1/28 3:36,4.3,1,4.4,1,6.4,2
2015/1/28 3:37,4.2,1,4.3,1,4.9,2
2015/1/28 3:38,3.8,1,4.2,1,3.8,14
2015/1/28 3:39,3.3,1,3.8,1,4.2,15
2015/1/28 3:40,3.3,2,3.4,1,7.2,2
2015/1/28 3:41,3,1,3.3,1,6.1,2
2015/1/28 3:42,3.2,1,3.2,1,9.8,16
2015/1/28 3:43,3.2,1,3.2,1,8.3,1
2015/1/28 3:44,3.2,1,3.2,1,4.1,16
2015/1/28 3:45,3.2,1,3.2,1,3.8,1
2015/1/28 3:46,3.1,1,3.2,1,4.3,16
2015/1/28 3:47,3.1,1,3.2,1,5.2,3
2015/1/28 3:48,3.2,1,3.2,1,6.7,4
2015/1/28 3:49,3.3,1,3.3,2,6.2,16
2015/1/28 3:50,3.1,1,3.3,2,3.8,4
2015/1/28 3:51,3,1,3.1,1,2.4,16
2015/1/28 3:52,2.5,1,3,1,2.6,15
2015/1/28 3:53,2.2,16,2.5,1,2.5,14
2015/1/28 3:54,2.1,16,2.2,1,1.4,9
2015/1/28 3:55,2,16,2.1,1,2.5,12
2015/1/28 3:56,2,16,2,1,3.3,14
2015/1/28 3:57,2,15,2,1,2.9,14
2015/1/28 3:58,1.7,15,2,1,1.1,13
2015/1/28 3:59,1.4,15,1.6,1,1.4,5
2015/1/28 4:00,1.2,15,1.3,1,1.3,6
2015/1/28 4:01,1.2,14,1.2,1,2,4
2015/1/28 4:02,1.2,14,1.2,1,2,6
2015/1/28 4:03,1.2,3,1.2,16,3,5
2015/1/28 4:04,1.6,5,1.6,16,7.8,6
2015/1/28 4:05,1.9,4,1.9,16,8.1,4
2015/1/28 4:06,2.1,5,2.1,5,5.7,3
2015/1/28 4:07,2,5,2.1,5,4.2,5
2015/1/28 4:08,2.1,5,2.1,5,2.5,16
2015/1/28 4:09,2.3,5,2.3,5,3.2,13
2015/1/28 4:10,2.3,4,2.3,5,1.8,15
2015/1/28 4:11,2.3,3,2.3,5,2.5,15
2015/1/28 4:12,2.2,2,2.3,5,1.9,9
2015/1/28 4:13,2.1,2,2.2,5,1.8,8
2015/1/28 4:14,1.9,15,2.1,5,3,8
2015/1/28 4:15,1.4,12,1.8,5,2.1,8
2015/1/28 4:16,1.1,12,1.4,5,1.9,9
2015/1/28 4:17,1.2,11,1.2,5,2.4,11
2015/1/28 4:18,1.2,11,1.2,5,2.4,10
2015/1/28 4:19,1.2,10,1.2,5,3,11
2015/1/28 4:20,1.2,10,1.3,4,2.4,9
2015/1/28 4:21,1.2,10,1.2,3,1.8,15
2015/1/28 4:22,1.2,10,1.2,2,2.2,5
2015/1/28 4:23,1.4,9,1.4,2,3.6,4
2015/1/28 4:24,1.5,10,1.5,14,5.2,5
2015/1/28 4:25,1.7,10,1.7,10,6.5,15
2015/1/28 4:26,1.9,9,1.9,10,5.2,3
2015/1/28 4:27,1.8,10,1.9,10,2.6,2
2015/1/28 4:28,1.8,6,1.9,10,2.5,9
2015/1/28 4:29,1.8,4,1.8,10,4.2,3
2015/1/28 4:30,2,4,2,4,4.9,3
2015/1/28 4:31,2.2,4,2.2,4,4.7,2
2015/1/28 4:32,2.2,4,2.2,4,2,14
2015/1/28 4:33,2.1,2,2.2,4,2.9,15
2015/1/28 4:34,2.1,2,2.1,4,3.8,11
2015/1/28 4:35,2.1,2,2.1,4,3,11
2015/1/28 4:36,2,13,2.1,4,3.7,10
2015/1/28 4:37,2.1,13,2.1,4,4.7,14
2015/1/28 4:38,2.2,14,2.2,4,3.8,11
2015/1/28 4:39,2.2,13,2.2,4,3,2
2015/1/28 4:40,2.2,14,2.2,4,6.9,2
2015/1/28 4:41,2.1,13,2.2,4,3.2,16
2015/1/28 4:42,2.2,13,2.2,4,3.8,2
2015/1/28 4:43,2.1,13,2.2,13,2.7,12
2015/1/28 4:44,2.1,14,2.1,13,3.1,2
2015/1/28 4:45,2.1,15,2.1,13,3.9,5
2015/1/28 4:46,2.1,1,2.1,13,4.3,5
2015/1/28 4:47,2.2,2,2.2,13,3.9,6
2015/1/28 4:48,2.3,3,2.3,3,5.1,3
2015/1/28 4:49,2.4,3,2.4,3,5.6,3
2015/1/28 4:50,2.3,3,2.4,3,6.9,16
2015/1/28 4:51,2.5,3,2.5,3,6.5,1
2015/1/28 4:52,2.6,2,2.6,2,5.8,14
2015/1/28 4:53,2.8,3,2.8,3,6.7,14
2015/1/28 4:54,2.8,2,2.8,3,4.7,1
2015/1/28 4:55,2.8,2,2.8,3,6.1,4
2015/1/28 4:56,2.7,2,2.9,2,3.5,3
2015/1/28 4:57,2.7,1,2.7,2,4.4,16
2015/1/28 4:58,2.6,16,2.7,2,4.2,15
2015/1/28 4:59,2.4,16,2.5,2,1.5,4
2015/1/28 5:00,2.1,16,2.4,2,1.3,2
2015/1/28 5:01,2,16,2.1,2,3,16
2015/1/28 5:02,1.9,16,2,2,4.5,4
2015/1/28 5:03,1.9,1,1.9,2,3.6,3
2015/1/28 5:04,1.8,1,1.9,2,3.6,3
2015/1/28 5:05,1.8,2,1.9,2,5.2,3
2015/1/28 5:06,1.8,2,1.8,1,3.6,2
2015/1/28 5:07,1.8,2,1.8,1,3,3
2015/1/28 5:08,1.8,3,1.8,16,3.6,2
2015/1/28 5:09,1.8,3,1.8,16,3.9,2
2015/1/28 5:10,1.8,3,1.8,16,3,3
2015/1/28 5:11,1.9,3,1.9,16,2.7,5
2015/1/28 5:12,1.8,3,1.9,16,4.2,6
2015/1/28 5:13,1.7,3,1.8,1,3,16
2015/1/28 5:14,1.8,3,1.8,2,3.9,1
2015/1/28 5:15,1.7,3,1.8,3,3.3,16
2015/1/28 5:16,1.7,3,1.7,3,3.5,2
2015/1/28 5:17,1.6,3,1.7,3,1.6,8
2015/1/28 5:18,1.5,3,1.6,3,3.8,3
2015/1/28 5:19,1.6,3,1.6,3,4.2,3
2015/1/28 5:20,1.9,3,1.9,3,6.5,1
2015/1/28 5:21,2.1,3,2.1,3,6.1,1
2015/1/28 5:22,2.3,3,2.3,3,5.7,4
2015/1/28 5:23,2.5,2,2.5,2,5.4,2
2015/1/28 5:24,2.6,2,2.6,2,7.8,2
2015/1/28 5:25,2.9,3,2.9,3,7,3
2015/1/28 5:26,2.9,3,2.9,3,3.5,2
2015/1/28 5:27,2.9,2,2.9,3,2.7,4
2015/1/28 5:28,3.3,2,3.3,2,7.8,3
2015/1/28 5:29,3.3,2,3.4,2,6.8,2
2015/1/28 5:30,3.2,2,3.3,2,4.7,16
2015/1/28 5:31,3.1,2,3.3,2,4.4,15
2015/1/28 5:32,3,1,3.1,2,4.5,15
2015/1/28 5:33,2.9,1,3,2,4.5,15
2015/1/28 5:34,2.9,1,2.9,2,9.9,16
2015/1/28 5:35,3.1,1,3.1,2,11.6,15
2015/1/28 5:36,3.4,1,3.4,2,10.1,3
2015/1/28 5:37,3.6,1,3.6,1,7.5,1
2015/1/28 5:38,3.6,1,3.6,1,7.4,1
2015/1/28 5:39,3.6,1,3.6,1,7.6,15
2015/1/28 5:40,3.8,16,3.8,1,7.8,14
2015/1/28 5:41,4.1,16,4.1,16,8.5,15
2015/1/28 5:42,4.1,16,4.2,16,6.2,16
2015/1/28 5:43,4.2,16,4.2,16,5.7,14
2015/1/28 5:44,4.3,16,4.3,16,7.8,16
2015/1/28 5:45,4.2,16,4.2,16,7.9,15
2015/1/28 5:46,4,15,4.2,16,6.2,14
2015/1/28 5:47,3.8,15,3.9,16,4.4,15
2015/1/28 5:48,3.7,15,3.9,16,3.5,14
2015/1/28 5:49,3.4,15,3.7,16,1.9,11
2015/1/28 5:50,3.1,15,3.4,16,2.7,2
2015/1/28 5:51,2.7,15,3.1,16,2.2,4
2015/1/28 5:52,2.7,15,2.7,16,4.5,1
2015/1/28 5:53,3,15,3,16,9.5,15
2015/1/28 5:54,3,15,3.1,16,10.7,15
2015/1/28 5:55,2.8,16,3,16,6.3,16
2015/1/28 5:56,2.8,16,2.9,15,5.1,1
2015/1/28 5:57,2.8,16,2.8,15,7.4,2
2015/1/28 5:58,2.8,1,2.8,15,7.2,16
2015/1/28 5:59,2.9,1,2.9,15,7.2,15
2015/1/28 6:00,3.3,1,3.3,1,9.4,16
2015/1/28 6:01,3.8,16,3.8,16,9.9,1
2015/1/28 6:02,3.7,16,3.8,16,6.7,16
2015/1/28 6:03,3.4,16,3.8,16,5.4,15
2015/1/28 6:04,3.2,1,3.4,16,6.2,16
2015/1/28 6:05,3.3,1,3.3,16,6.9,1
2015/1/28 6:06,3.3,1,3.3,16,6.3,16
2015/1/28 6:07,3.5,1,3.5,16,7.7,3
2015/1/28 6:08,3.7,1,3.7,16,11.1,3
2015/1/28 6:09,4.2,1,4.2,1,11.1,1
2015/1/28 6:10,4,1,4.2,1,6.5,16
2015/1/28 6:11,3.7,1,4,1,6.5,15
2015/1/28 6:12,3.7,1,3.7,1,4.9,15
2015/1/28 6:13,3.6,1,3.7,1,3.3,4
2015/1/28 6:14,3.5,1,3.6,1,4.2,2
2015/1/28 6:15,3.5,1,3.6,1,5.6,1
2015/1/28 6:16,3.4,1,3.5,1,6.5,16
2015/1/28 6:17,3.2,1,3.4,1,3.7,16
2015/1/28 6:18,3.3,1,3.3,1,9.7,2
2015/1/28 6:19,3,1,3.2,1,9.7,3
2015/1/28 6:20,3.1,1,3.1,1,7.1,2
2015/1/28 6:21,3,1,3.1,1,5.2,16
2015/1/28 6:22,3.4,1,3.4,1,10.7,15
2015/1/28 6:23,3.5,1,3.5,1,5.5,15
2015/1/28 6:24,3.8,16,3.8,16,9.2,15
2015/1/28 6:25,4.1,16,4.1,16,11.6,15
2015/1/28 6:26,4.3,16,4.3,16,7.8,1
2015/1/28 6:27,4.5,16,4.5,16,9.2,2
2015/1/28 6:28,4.5,16,4.6,16,6.3,16
2015/1/28 6:29,4.4,16,4.5,16,6.7,16
2015/1/28 6:30,4.4,16,4.4,16,5.2,16
2015/1/28 6:31,4.4,16,4.4,16,8.6,1
2015/1/28 6:32,4.2,16,4.4,16,8.3,16
2015/1/28 6:33,4.2,16,4.2,16,8.1,1
2015/1/28 6:34,3.9,16,4.2,16,5.6,1
2015/1/28 6:35,3.7,16,3.9,16,8.6,2
2015/1/28 6:36,3.9,16,3.9,16,9.9,16
2015/1/28 6:37,3.8,16,3.9,16,6.5,14
2015/1/28 6:38,3.6,16,3.8,16,3.7,2
2015/1/28 6:39,3.5,16,3.6,16,4.1,1
2015/1/28 6:40,3.5,16,3.5,16,7.2,15
2015/1/28 6:41,3.6,16,3.6,16,6.9,15
2015/1/28 6:42,3.5,16,3.6,16,6.8,1
2015/1/28 6:43,3.6,16,3.6,16,9.2,16
2015/1/28 6:44,3.8,16,3.8,16,9.1,2
2015/1/28 6:45,3.8,16,3.8,16,6.4,16
2015/1/28 6:46,3.6,16,3.7,16,8.5,16
2015/1/28 6:47,3.6,16,3.6,16,8.1,16
2015/1/28 6:48,3.9,16,3.9,16,8.6,16
2015/1/28 6:49,4,16,4,16,6,1
2015/1/28 6:50,4.2,16,4.2,16,8.1,2
2015/1/28 6:51,4.2,16,4.2,16,6.5,16
2015/1/28 6:52,4.2,16,4.2,16,6,1
2015/1/28 6:53,4.2,16,4.3,16,6.7,15
2015/1/28 6:54,4.1,16,4.2,16,5.7,16
2015/1/28 6:55,4.1,16,4.1,16,6.9,2
2015/1/28 6:56,3.9,16,4.1,16,6.5,15
2015/1/28 6:57,3.8,16,3.9,16,5.2,3
2015/1/28 6:58,3.5,16,3.7,16,6.2,1
2015/1/28 6:59,3.7,16,3.7,16,6.7,16
2015/1/28 7:00,3.6,16,3.7,16,9.3,13
2015/1/28 7:01,3.9,16,3.9,16,14.2,16
2015/1/28 7:02,3.9,16,3.9,16,7.8,1
2015/1/28 7:03,3.9,16,4,16,6.5,1
2015/1/28 7:04,3.7,16,3.9,16,3.3,16
2015/1/28 7:05,3.7,1,3.7,16,5.4,15
2015/1/28 7:06,3.8,1,3.8,16,6.9,15
2015/1/28 7:07,4,1,4,16,8.2,16
2015/1/28 7:08,4.1,16,4.2,16,6.2,16
2015/1/28 7:09,4.1,16,4.1,16,6.8,2
2015/1/28 7:10,4,1,4.1,16,6.3,1
2015/1/28 7:11,3.7,1,3.9,16,7.4,1
2015/1/28 7:12,3.7,1,3.8,16,7.8,1
2015/1/28 7:13,3.6,1,3.7,16,5.1,15
2015/1/28 7:14,4,1,4,16,9.5,1
2015/1/28 7:15,4,1,4.1,16,5.8,2
2015/1/28 7:16,3.8,1,4,16,6.5,16
2015/1/28 7:17,3.6,1,3.8,16,4.4,1
2015/1/28 7:18,3.6,1,3.6,16,6.1,1
2015/1/28 7:19,3.6,1,3.7,16,6.1,1
2015/1/28 7:20,3.3,1,3.6,1,3.7,2
2015/1/28 7:21,3.2,1,3.3,1,5.2,16
2015/1/28 7:22,3,1,3.2,1,5,15
2015/1/28 7:23,3.1,1,3.1,1,9,14
2015/1/28 7:24,2.9,1,3.1,1,9.5,15
2015/1/28 7:25,2.9,1,3,1,6.5,2
2015/1/28 7:26,2.9,1,3,1,4.2,1
2015/1/28 7:27,3,1,3.1,1,6.8,4
2015/1/28 7:28,2.9,1,3,1,4.2,3
2015/1/28 7:29,2.7,1,2.8,1,4.9,3
2015/1/28 7:30,2.8,1,2.8,1,3.7,16
2015/1/28 7:31,2.6,1,2.8,1,2.2,16
2015/1/28 7:32,2.7,1,2.7,1,6.9,16
2015/1/28 7:33,2.7,1,2.8,1,5.2,15
2015/1/28 7:34,2.7,1,2.8,1,6,2
2015/1/28 7:35,2.8,1,2.8,1,7.1,2
2015/1/28 7:36,2.7,1,2.7,1,2.7,1
2015/1/28 7:37,2.6,1,2.7,1,5.8,1
2015/1/28 7:38,2.7,1,2.7,1,6.7,16
2015/1/28 7:39,2.9,1,2.9,1,8.6,14
2015/1/28 7:40,3.2,1,3.2,1,9,2
2015/1/28 7:41,3.5,1,3.5,1,12.5,2
2015/1/28 7:42,3.8,1,3.8,1,9.5,2
2015/1/28 7:43,3.9,1,3.9,1,8.6,16
2015/1/28 7:44,3.8,1,3.9,1,4.9,16
2015/1/28 7:45,3.6,1,3.8,1,4.7,1
2015/1/28 7:46,3.6,1,3.6,1,4.3,15
2015/1/28 7:47,3.6,1,3.7,1,6.8,4
2015/1/28 7:48,3.5,1,3.6,1,2.6,4
2015/1/28 7:49,3.4,1,3.4,1,5.8,16
2015/1/28 7:50,3.4,1,3.5,1,8.9,2
2015/1/28 7:51,3.3,1,3.5,1,7.9,2
2015/1/28 7:52,3,1,3.3,1,4.8,15
2015/1/28 7:53,2.9,1,3,1,5,16
2015/1/28 7:54,2.9,1,2.9,1,6.2,16
2015/1/28 7:55,2.9,1,2.9,1,5.5,16
2015/1/28 7:56,3.1,1,3.1,1,6.7,2
2015/1/28 7:57,3.1,1,3.1,1,5,15
2015/1/28 7:58,3.5,1,3.5,1,8.5,16
2015/1/28 7:59,3.6,1,3.6,1,7,16
2015/1/28 8:00,3.3,1,3.6,1,5.1,1
2015/1/28 8:01,3.4,1,3.4,1,8.7,1
2015/1/28 8:02,3.5,1,3.5,1,7.4,2
2015/1/28 8:03,3.6,1,3.6,1,6.1,16
2015/1/28 8:04,3.4,1,3.6,1,2.6,16
2015/1/28 8:05,3.4,1,3.5,1,4.8,1
2015/1/28 8:06,3.2,1,3.4,1,4.8,15
2015/1/28 8:07,3.1,1,3.2,1,6.7,16
2015/1/28 8:08,3,16,3.1,1,4.7,15
2015/1/28 8:09,2.8,16,2.9,1,5.6,15
2015/1/28 8:10,2.9,16,2.9,1,5.4,16
2015/1/28 8:11,2.6,16,2.9,1,3,16
2015/1/28 8:12,2.3,16,2.6,1,1.4,1
2015/1/28 8:13,2.1,15,2.3,1,2.2,10
2015/1/28 8:14,2.1,15,2.1,1,2.9,16
2015/1/28 8:15,2.1,15,2.1,1,3.6,16
2015/1/28 8:16,2,15,2.1,1,1.8,14
2015/1/28 8:17,1.9,15,2,1,1.5,11
2015/1/28 8:18,1.6,14,1.8,16,1.6,7
2015/1/28 8:19,1.6,14,1.7,16,5.8,14
2015/1/28 8:20,1.5,14,1.6,16,4.2,16
2015/1/28 8:21,1.6,14,1.6,16,4.5,2
2015/1/28 8:22,1.8,14,1.8,16,4.8,1
2015/1/28 8:23,2,15,2,15,6,16
2015/1/28 8:24,2.2,15,2.2,15,4.7,2
2015/1/28 8:25,2.1,16,2.2,15,1.8,16
2015/1/28 8:26,2.1,1,2.1,15,2.2,1
2015/1/28 8:27,2.1,1,2.1,15,2.7,3
2015/1/28 8:28,2.2,1,2.2,15,2.9,10
2015/1/28 8:29,2,2,2.2,15,2,4
2015/1/28 8:30,2,2,2,15,4.5,2
2015/1/28 8:31,1.8,2,2,15,2.2,1
2015/1/28 8:32,1.6,2,1.8,15,1.1,15
2015/1/28 8:33,1.3,2,1.6,15,1.6,15
2015/1/28 8:34,1.2,1,1.3,15,2,16
2015/1/28 8:35,1.2,1,1.2,1,2.1,16
2015/1/28 8:36,1.2,1,1.2,1,4.4,1
2015/1/28 8:37,1.2,1,1.2,1,2.7,4
2015/1/28 8:38,1.1,1,1.2,1,1.5,2
2015/1/28 8:39,1.1,1,1.1,2,0.9,3
2015/1/28 8:40,1,16,1.1,2,2.7,1
2015/1/28 8:41,1.1,1,1.1,2,2.4,3
2015/1/28 8:42,1.2,1,1.2,2,2.5,3
2015/1/28 8:43,1.3,2,1.3,1,4.2,5
2015/1/28 8:44,1.4,2,1.4,2,3,4
2015/1/28 8:45,1.4,3,1.4,2,3,4
2015/1/28 8:46,1.5,4,1.5,3,3.2,5
2015/1/28 8:47,1.5,4,1.5,3,2.2,7
2015/1/28 8:48,1.6,3,1.6,3,2.5,1
2015/1/28 8:49,1.7,3,1.7,3,2.7,1
2015/1/28 8:50,1.7,4,1.7,3,3,5
2015/1/28 8:51,1.7,4,1.7,3,2.5,1
2015/1/28 8:52,1.6,3,1.7,3,1.4,2
2015/1/28 8:53,1.5,3,1.6,3,1.3,12
2015/1/28 8:54,1.5,2,1.5,3,3.8,16
2015/1/28 8:55,1.6,1,1.6,3,5.8,16
2015/1/28 8:56,1.7,1,1.7,3,6.3,1
2015/1/28 8:57,2,1,2,1,5.4,2
2015/1/28 8:58,1.9,1,2,1,3.2,2
2015/1/28 8:59,1.8,1,1.9,1,1.6,3
2015/1/28 9:00,1.9,1,1.9,1,3.3,3
2015/1/28 9:01,2.2,1,2.2,1,6.3,1
2015/1/28 9:02,2.4,1,2.4,1,5,1
2015/1/28 9:03,2.6,1,2.6,1,3.6,16
2015/1/28 9:04,2.6,1,2.6,1,4.9,1
2015/1/28 9:05,2.4,2,2.5,1,3.1,16
2015/1/28 9:06,2.2,2,2.4,1,3.7,3
2015/1/28 9:07,2.3,1,2.3,1,7.1,2
2015/1/28 9:08,2.5,1,2.5,1,6.7,1
2015/1/28 9:09,2.8,1,2.8,1,5.6,1
2015/1/28 9:10,3,1,3,1,7.8,2
2015/1/28 9:11,3,1,3.1,1,6.8,1
2015/1/28 9:12,3.1,1,3.1,1,7.5,2
2015/1/28 9:13,3,1,3.1,1,3.5,3
2015/1/28 9:14,3,1,3,1,2.7,16
2015/1/28 9:15,3.1,1,3.1,1,4.4,15
2015/1/28 9:16,3.3,2,3.3,2,6.4,2
2015/1/28 9:17,3.3,2,3.4,2,6.1,1
2015/1/28 9:18,3.2,1,3.3,2,5.7,16
2015/1/28 9:19,3.3,1,3.3,2,9.1,2
2015/1/28 9:20,3.4,1,3.4,2,8.9,2
2015/1/28 9:21,3.4,1,3.4,2,6.1,2
2015/1/28 9:22,3.2,1,3.3,2,5.2,2
2015/1/28 9:23,3.2,1,3.2,2,3.2,15
2015/1/28 9:24,3.3,1,3.4,2,5.6,2
2015/1/28 9:25,3.3,1,3.4,2,7.9,3
2015/1/28 9:26,3.2,2,3.3,2,4.1,5
2015/1/28 9:27,3.1,2,3.2,1,4.3,16
2015/1/28 9:28,3,2,3.1,1,5.2,3
2015/1/28 9:29,2.9,2,3,1,6,3
2015/1/28 9:30,2.9,2,2.9,1,8.4,1
2015/1/28 9:31,3.2,2,3.2,1,9.3,16
2015/1/28 9:32,3.4,2,3.4,1,7.5,15
2015/1/28 9:33,3.4,2,3.4,1,4.1,15
2015/1/28 9:34,3.4,2,3.4,1,5.1,2
2015/1/28 9:35,3.3,2,3.4,2,6.4,1
2015/1/28 9:36,3.5,1,3.5,1,7.1,2
2015/1/28 9:37,3.8,1,3.8,1,8.4,2
2015/1/28 9:38,3.9,1,3.9,1,6.7,1
2015/1/28 9:39,3.7,1,3.9,1,2.9,15
2015/1/28 9:40,3.4,1,3.6,1,5.5,3
2015/1/28 9:41,3.2,1,3.4,1,5.8,1
2015/1/28 9:42,3,1,3.2,1,3.1,16
2015/1/28 9:43,3,1,3,1,3,2
2015/1/28 9:44,3,1,3,1,4.5,1
2015/1/28 9:45,2.9,1,3,1,2.4,16
2015/1/28 9:46,2.7,1,2.9,1,5.5,4
2015/1/28 9:47,2.5,1,2.7,1,8.4,3
2015/1/28 9:48,2.5,1,2.5,1,7.6,2
2015/1/28 9:49,2.9,2,2.9,1,8.3,2
2015/1/28 9:50,2.9,2,3,1,5.4,3
2015/1/28 9:51,3,2,3,1,6.2,3
2015/1/28 9:52,3.3,2,3.3,2,8.6,3
2015/1/28 9:53,3.6,2,3.6,2,8.7,1
2015/1/28 9:54,3.5,2,3.6,2,6,3
2015/1/28 9:55,3.8,2,3.8,2,5.8,1
2015/1/28 9:56,3.7,2,3.8,2,3,1
2015/1/28 9:57,3.7,2,3.7,2,6.3,3
2015/1/28 9:58,3.9,2,3.9,2,9.9,1
2015/1/28 9:59,4,2,4,2,8.4,1
2015/1/28 10:00,3.9,2,4.1,2,7.4,16
2015/1/28 10:01,3.6,2,3.9,2,2.7,2
2015/1/28 10:02,3.5,1,3.7,2,5.4,16
2015/1/28 10:03,3.3,1,3.5,2,5.8,15
2015/1/28 10:04,3.2,1,3.3,2,3.9,1
2015/1/28 10:05,3.2,1,3.2,2,4.5,16
2015/1/28 10:06,3.2,1,3.2,2,4.5,16
2015/1/28 10:07,3.2,1,3.3,2,7.2,3
2015/1/28 10:08,3,1,3.2,2,5.5,3
2015/1/28 10:09,2.6,1,2.9,2,4.5,15
2015/1/28 10:10,2.7,1,2.7,2,6.7,16
2015/1/28 10:11,2.9,1,2.9,2,5,16
2015/1/28 10:12,2.9,1,2.9,1,6.4,15
2015/1/28 10:13,2.8,1,2.8,1,3.8,1
2015/1/28 10:14,2.9,1,2.9,1,5.6,1
2015/1/28 10:15,2.9,1,2.9,1,6.8,2
2015/1/28 10:16,3,1,3,1,4.9,2
2015/1/28 10:17,3,1,3,1,4.7,1
2015/1/28 10:18,3.1,1,3.1,1,7.9,2
2015/1/28 10:19,3.6,1,3.6,1,10.7,1
2015/1/28 10:20,3.4,1,3.5,1,5.8,1
2015/1/28 10:21,3.4,1,3.4,1,5.4,2
2015/1/28 10:22,3.2,2,3.3,1,4.1,1
2015/1/28 10:23,3.2,1,3.3,1,3.1,2
2015/1/28 10:24,3.1,2,3.2,1,3.2,2
2015/1/28 10:25,3.1,2,3.2,1,4.5,3
2015/1/28 10:26,3.2,2,3.2,1,7.1,2
2015/1/28 10:27,3.4,2,3.4,1,8.5,1
2015/1/28 10:28,3.2,2,3.4,1,4.9,2
2015/1/28 10:29,2.8,2,3.1,1,6.8,3
2015/1/28 10:30,3.1,2,3.1,1,8.6,3
2015/1/28 10:31,3.3,2,3.3,2,8.6,16
2015/1/28 10:32,3.3,2,3.3,2,6,2
2015/1/28 10:33,3.5,2,3.5,2,5.2,2
2015/1/28 10:34,3.6,2,3.6,2,5.8,2
2015/1/28 10:35,3.5,2,3.6,2,4.9,1
2015/1/28 10:36,3.4,2,3.5,2,4.4,2
2015/1/28 10:37,3.3,2,3.4,2,5.6,2
2015/1/28 10:38,3.4,2,3.4,2,6.2,1
2015/1/28 10:39,3.4,2,3.5,2,4.9,3
2015/1/28 10:40,3.3,2,3.4,2,6.3,2
2015/1/28 10:41,3.1,1,3.3,2,3.7,1
2015/1/28 10:42,3,1,3.1,2,4.1,2
2015/1/28 10:43,2.9,1,3,2,5.8,2
2015/1/28 10:44,2.9,1,3,2,6,16
2015/1/28 10:45,2.8,1,2.9,2,4.9,1
2015/1/28 10:46,2.9,1,2.9,2,5.2,1
2015/1/28 10:47,3,1,3,2,6.4,16
2015/1/28 10:48,2.9,1,3,2,5.7,14
2015/1/28 10:49,2.8,16,2.9,2,5.1,16
2015/1/28 10:50,2.7,16,2.9,2,3.6,16
2015/1/28 10:51,2.6,16,2.7,1,3.7,15
2015/1/28 10:52,2.5,16,2.6,1,1.5,12
2015/1/28 10:53,2.2,15,2.5,1,1.3,16
2015/1/28 10:54,2.1,15,2.2,1,3.1,15
2015/1/28 10:55,2.1,16,2.1,1,4.2,16
2015/1/28 10:56,2,16,2.1,1,5.7,2
2015/1/28 10:57,1.9,16,2,1,5.2,3
2015/1/28 10:58,1.9,1,1.9,16,7,3
2015/1/28 10:59,1.9,1,1.9,16,5.7,3
2015/1/28 11:00,2.4,2,2.4,16,8.7,3
2015/1/28 11:01,2.8,2,2.8,2,7,3
2015/1/28 11:02,3.4,2,3.4,2,11,2
2015/1/28 11:03,3.8,2,3.8,2,7.6,3
2015/1/28 11:04,4.1,3,4.1,3,7,3
2015/1/28 11:05,4.4,3,4.5,3,6.9,3
2015/1/28 11:06,4.5,2,4.5,3,6.3,1
2015/1/28 11:07,4.7,2,4.7,2,8.1,1
2015/1/28 11:08,4.9,2,4.9,2,7.7,1
2015/1/28 11:09,5,2,5,2,5.8,1
2015/1/28 11:10,4.6,2,5,2,6.1,3
2015/1/28 11:11,4.2,2,4.6,2,3,4
2015/1/28 11:12,3.6,2,4.1,2,2.9,2
2015/1/28 11:13,3.4,2,3.6,2,3.8,2
2015/1/28 11:14,3.2,2,3.3,2,6.3,3
2015/1/28 11:15,3.2,2,3.2,2,6.1,3
2015/1/28 11:16,3.2,2,3.2,2,6.5,2
2015/1/28 11:17,3.2,2,3.2,2,7.5,2
2015/1/28 11:18,3,2,3.2,2,7.8,3
2015/1/28 11:19,3,2,3,2,7.2,3
2015/1/28 11:20,3,2,3,2,4.4,3
2015/1/28 11:21,3.2,3,3.2,2,4.9,4
2015/1/28 11:22,3.5,2,3.5,2,6.9,2
2015/1/28 11:23,3.5,2,3.5,2,5.4,2
2015/1/28 11:24,3.4,2,3.6,2,5,2
2015/1/28 11:25,3.3,2,3.4,2,3.5,2